Regional Weather Roundup
Issued by NWS

Home | Current Version | Previous Version | Graphics & Text | Print | Product List | Glossary On
Versions: 1 2 3 4 5 6 7 8 9 10 11 12 13 14 15 16 17 18 19 20 21 22 23 24 25 26 27 28 29 30 31 32 33 34 35 36 37 38 39 40 41 42 43 44 45 46 47 48 49 50
000
ASUS43 KIND 312359
RWRIN

WEATHER ROUNDUP FOR INDIANA
NATIONAL WEATHER SERVICE INDIANAPOLIS IN
800 PM EDT FRI JUL 31 2015

NOTE: "FAIR" INDICATES FEW OR NO CLOUDS BELOW 12,000 FEET WITH NO
SIGNIFICANT WEATHER AND/OR OBSTRUCTIONS TO VISIBILITY.

* - STATION DOES NOT REPORT WEATHER SUCH AS PRECIPITATION OR FOG.

+ - STATION NOT QUALITY CONTROLLED BY THE NATIONAL WEATHER SERVICE.
    USE DATA WITH CAUTION...ESPECIALLY DEWPOINT AND RELATIVE
    HUMIDITY OBSERVATIONS.

INZ001>003-010>013-019-020-010100-
NORTHWEST INDIANA

CITY           SKY/WX    TMP DP  RH WIND       PRES   REMARKS
GARY /AIRPORT/ SUNNY     84  48  28 W12G28    29.93S
RENSSELAER +   SUNNY     81  55  41 W10       29.94S

$$

LMZ046-743>745-010100-
SOUTHERN LAKE MICHIGAN

STATION/POSITION TIME  TEMP    WIND        PRES    WAVE
                       AIR SEA DIR/SP/G            HT
                 (UTC) (F)     (DEG/KT/KT) (MB)    (FT)
BURNS HARBOR     2300   77     330/  9/ 11 1013.9S
MICHIGAN CITY    2300   77     330/ 14/ 17   N/A
5NW MICH CITY    2300   76 74  350/ 12/ 16   N/A     3

$$

INZ004-005-014>016-021>024-010100-
NORTH CENTRAL INDIANA

CITY           SKY/WX    TMP DP  RH WIND       PRES   REMARKS
ELKHART        SUNNY     79  48  34 NW9       29.93S
GOSHEN         SUNNY     78  51  38 NW14      29.93R
6HR MIN TEMP:  78; 6HR MAX TEMP:  84;

SOUTH BEND     SUNNY     78  51  38 N12       29.94R
6HR MIN TEMP:  78; 6HR MAX TEMP:  87;


$$

INZ006>009-017-018-025>027-010100-
NORTHEAST INDIANA

CITY           SKY/WX    TMP DP  RH WIND       PRES   REMARKS
ANGOLA *+      PTCLDY    79  72  78 NW8       29.92R
FORT WAYNE     PTCLDY    81  54  39 NW8       29.92S
6HR MIN TEMP:  74; 6HR MAX TEMP:  88; 6HR PCP: TRACE;


$$

INZ028-029-035-036-043>045-051>053-010100-
WEST CENTRAL INDIANA

CITY           SKY/WX    TMP DP  RH WIND       PRES   REMARKS
CRAWFORDSVL +  SUNNY     77  55  47 W5          N/A
6HR MIN TEMP:  77; 6HR MAX TEMP:  84; 6HR PCP:  0.01;

GREENCASTLE +  SUNNY     81  52  36 W5        29.99S
LAFAYETTE      SUNNY     80  60  50 W8        29.95S
6HR MIN TEMP:  80; 6HR MAX TEMP:  86;

TERRE HAUTE    SUNNY     84  56  38 NW6       29.98F
6HR MIN TEMP:  84; 6HR MAX TEMP:  90;


$$

INZ030>032-037>040-046>048-054>057-064-065-010100-
CENTRAL INDIANA

CITY           SKY/WX    TMP DP  RH WIND       PRES   REMARKS
GREENWOOD *+   CLEAR     82  61  47 W9        29.97S
INDIANAPOLIS   PTCLDY    83  59  44 W16       29.96S
6HR MIN TEMP:  83; 6HR MAX TEMP:  88;

-EAGLE CREEK   CLEAR     81  58  45 NW14      29.96R
6HR MIN TEMP:  81; 6HR MAX TEMP:  86;

KOKOMO *+      CLEAR     82  57  42 W9        29.94S
6HR MIN TEMP:  81; 6HR MAX TEMP:  88;

MT COMFORT *+  CLEAR     81  48  32 NW14G21   29.96S
SHELBYVILLE    CLEAR     83  65  54 W9        29.94F
6HR MIN TEMP:  83; 6HR MAX TEMP:  87;


$$

INZ033-034-041-042-049-050-058-059-010100-
EAST CENTRAL INDIANA

CITY           SKY/WX    TMP DP  RH WIND       PRES   REMARKS
MUNCIE         CLEAR     78  58  49 W9        29.94S
6HR MIN TEMP:  71; 6HR MAX TEMP:  85; 6HR PCP:  0.02;


$$

INZ060-061-067>069-081>083-085>088-010100-
SOUTHWEST INDIANA

CITY           SKY/WX    TMP DP  RH WIND       PRES   REMARKS
EVANSVILLE     MOSUNNY   87  66  49 NW3       30.00F
6HR MIN TEMP:  87; 6HR MAX TEMP:  91;

HUNTINGBURG *+ MOSUNNY   84  66  54 W6        30.00S
6HR MIN TEMP:  82; 6HR MAX TEMP:  90;


$$

INZ062-063-066-070>080-084-089>092-010100-
SOUTH CENTRAL AND SOUTHEAST INDIANA

CITY           SKY/WX    TMP DP  RH WIND       PRES   REMARKS
BLOOMINGTON    SUNNY     82  66  58 W6        29.99S
6HR MIN TEMP:  82; 6HR MAX TEMP:  87;

MADISON *+     CLEAR     82  55  39 W3        30.00S
SEYMOUR +      CLEAR     84  64  51 W6        29.97F

$$




USA.gov is the U.S. government's official web portal to all federal, state and local government web resources and services.